Flag for Canada Weather past 2 weeks in Mississauga, Ontario, Canada

Now
23 °F

Clear.


Feels Like: 17 °F
Forecast: 17 / 32 °F
Wind: 5 mph from South

Location: Toronto Pearson International Airport

Current Time: Jan 28, 2015 at 7:43:54 PM

Latest Report: Jan 28, 2015 at 7:00 PM


Visibility: 15 mi

Pressure: 30.33 "Hg

Humidity: 42%

Dew point: 3 °F

Location of MississaugaLocation

Historic Weather in Mississauga — Graph

°F

Mississauga temperature yesterday

Maximum temperature yesterday: 19 °F (at 1:00 PM)
Minimum temperature yesterday: 10 °F (at 3:00 AM)
Average temperature yesterday: 14 °F

Past Weeks' High & Low Weather Summary

 TemperatureHumidityPressure
High43 °F (Jan 18, 4:00 AM)93% (Jan 18, 9:00 AM)30.73 "Hg (Jan 18, 9:00 AM)
Low3 °F (Jan 14, 4:00 AM)29% (Jan 28, 3:00 PM)29.48 "Hg (Jan 24, 4:00 PM)
Average20 °F70%30.04 "Hg
* Reported Jan 13 6:00 PM — Jan 28 6:00 PM, Mississauga, Weather by CustomWeather, © 2014

Note: Actual official high and low records may vary slightly from our data, if they occured in-between our weather recording intervals... More about our weather records

Advertising

Mississauga weather history for previous 24 hours

 ConditionsComfort  
Time TempWeatherWind HumidityBarometerVisibility
6:00 PM
Jan 28
25 °FPassing clouds.5 mph42%30.32 "Hg15 mi
5:00 PM27 °FPassing clouds.7 mph43%30.31 "Hg15 mi
4:00 PM28 °FPassing clouds.5 mph40%30.31 "Hg15 mi
3:00 PM28 °FPassing clouds.3 mph29%30.30 "Hg15 mi
2:00 PM28 °FPassing clouds.2 mph34%30.30 "Hg15 mi
1:00 PM27 °FPassing clouds.6 mph36%30.33 "Hg15 mi
12:00 PM25 °FPassing clouds.9 mph42%30.35 "Hg15 mi
11:00 AM23 °FPassing clouds.15 mph46%30.35 "Hg15 mi
10:00 AM19 °FPassing clouds.9 mph68%30.34 "Hg15 mi
9:00 AM14 °FSunny.7 mph79%30.33 "Hg15 mi
8:00 AM9 °FSunny.6 mph85%30.31 "Hg15 mi
7:00 AM10 °FClear.9 mph79%30.28 "Hg15 mi
6:00 AM10 °FClear.8 mph72%30.26 "Hg15 mi
5:00 AM10 °FClear.7 mph67%30.24 "Hg15 mi
4:00 AM9 °FClear.10 mph72%30.20 "Hg15 mi
3:00 AM9 °FClear.10 mph66%30.19 "Hg15 mi
2:00 AM10 °FClear.9 mph61%30.20 "Hg15 mi
1:00 AM9 °FClear.9 mph66%30.19 "Hg15 mi
12:00 AM12 °FClear.13 mph62%30.17 "Hg15 mi
11:00 PM
Jan 27
12 °FClear.12 mph62%30.17 "Hg15 mi
10:00 PM14 °FClear.14 mph57%30.17 "Hg15 mi
9:00 PM14 °FClear.13 mph62%30.16 "Hg15 mi
8:00 PM12 °FPassing clouds.14 mph62%30.18 "Hg15 mi
7:00 PM14 °FPassing clouds.12 mph57%30.18 "Hg15 mi
Weather by CustomWeather, © 2014

See weather overviewHow to use our weather pages